星链-31404 (STARLINK-31404 )

导读

STARLINK-31404是美国SpaceX星链互联网卫星星座中的一颗卫星,于2024年4月17日发射升空。星链计划旨在通过近地轨道卫星群,为全球提供高速低延迟的宽带互联网服务,该卫星入轨后将助力星链组网,进一步扩展星座覆盖范围,提升全球网络服务能力。

基本信息
目录编号:
59521
目录名称:
STARLINK-31404
国际标识:
2024-073L
轨道中心:
EARTH
卫星名称:
星链-31404
卫星全名:
星链-31404 (STARLINK-31404 )
卫星状态:
在轨 (已飞行871 天)
发射日期:
2024-04-17 UTC
国别 :
美国 (US)
星等 :
--
轨道信息
数据来源 国际轨道数据 AOE轨道数据
星历时间 2026-09-05T03:05:33+0800
23小时前
查看轨道信息
2026-09-01T03:00:00+0800
5天前
查看轨道信息
半长轴 6861.194km 6861.238km
偏心率 0.0001076 0.0001366
轨道倾角 43.003° 43.002°
近地点辐角 265.043° 247.275°
升交点赤经 26.853° 49.468°
平近点角 95.030° 28.526°
近地点 482.318km 482.163km
远地点 483.796km 484.039km
周期 94.267分钟 94.268分钟
每日圈数 15.275774 15.27563
详细信息
固有亮度:
5
最大亮度:
1.5
卫星平台:
Starlink v2.0 mini
覆盖范围:
全球
运营商:
太空探索技术公司
运营商所在国:
美国
制造商(研发单位):
太空探索技术公司
制造商所在国:
美国
使用方式:
暂无
卫星简介
星链(Starlink)计划是由太空探索技术公司(SpaceX)提出的一个巨型低轨卫星互联网星座项目,计划在2019年至2024年间在太空搭建由约1.2万颗卫星组成的“星链”网络,其中1584颗将部署在地球上空550千米处的近地轨道,并从2020年开始工作。该卫星仍在工作。
2D轨道图
3D轨道图
轨道高度分析图
轨道倾角分析图
轨道综合分析图
查看轨道综合分析图
交会数据列表
事件ID 空间交会对象 最接近时刻(TCA) 交会距离 交会风险概率(CRP) 交会风险指数(CRI) 操作
CDM_260908-064105-316405-952121
2026-09-08T
06:41:04+0000
0.845 km
远距离
2.370174E-5 中风险 0.62